Time,TemperatureF,DewpointF,PressureIn,WindDirection,WindDirectionDegrees,WindSpeedMPH,WindSpeedGustMPH,Humidity,HourlyPrecipIn,Conditions,Clouds,dailyrainin,SoftwareType,DateUTC
2013-12-07 00:04:00,-2.7,-6.8,30.64,SE,146,0.0,0.0,82,0.00,,,0.00,VWS V12.07,2013-12-07 06:04:00,
2013-12-07 00:09:00,-2.9,-7.0,30.65,SSE,147,0.0,0.0,82,0.00,,,0.00,VWS V12.07,2013-12-07 06:09:00,
2013-12-07 00:14:00,-3.1,-7.2,30.65,SSE,147,0.0,0.0,82,0.00,,,0.00,VWS V12.07,2013-12-07 06:14:00,
2013-12-07 00:19:00,-3.3,-7.7,30.65,SE,146,0.0,0.0,81,0.00,,,0.00,VWS V12.07,2013-12-07 06:19:00,
2013-12-07 00:24:00,-3.4,-7.5,30.65,SE,146,0.0,0.0,82,0.00,,,0.00,VWS V12.07,2013-12-07 06:24:00,
2013-12-07 00:29:00,-3.6,-7.7,30.65,SSE,147,0.0,0.0,82,0.00,,,0.00,VWS V12.07,2013-12-07 06:29:00,
2013-12-07 00:34:00,-3.8,-8.1,30.65,SSE,147,0.0,0.0,81,0.00,,,0.00,VWS V12.07,2013-12-07 06:34:00,
2013-12-07 00:44:00,-4.4,-8.7,30.65,SE,146,0.0,0.0,81,0.00,,,0.00,VWS V12.07,2013-12-07 06:44:00,
2013-12-07 00:49:00,-4.7,-9.0,30.65,SSE,147,0.0,0.0,81,0.00,,,0.00,VWS V12.07,2013-12-07 06:49:00,
2013-12-07 00:54:00,-5.0,-9.6,30.65,SSE,147,0.0,0.0,80,0.00,,,0.00,VWS V12.07,2013-12-07 06:54:00,
2013-12-07 00:59:00,-5.3,-9.6,30.65,SSE,147,0.0,0.0,81,0.00,,,0.00,VWS V12.07,2013-12-07 06:59:00,
2013-12-07 01:04:00,-5.4,-9.7,30.65,SSE,147,0.0,0.0,81,0.00,,,0.00,VWS V12.07,2013-12-07 07:04:00,
2013-12-07 01:09:00,-5.6,-9.9,30.66,SSE,147,0.0,0.0,81,0.00,,,0.00,VWS V12.07,2013-12-07 07:09:00,
2013-12-07 01:14:00,-5.8,-10.1,30.66,SSE,147,0.0,0.0,81,0.00,,,0.00,VWS V12.07,2013-12-07 07:14:00,
2013-12-07 01:19:00,-6.0,-10.3,30.66,SSE,147,0.0,0.0,81,0.00,,,0.00,VWS V12.07,2013-12-07 07:19:00,
2013-12-07 01:24:00,-6.3,-10.9,30.66,SSE,147,0.0,0.0,80,0.00,,,0.00,VWS V12.07,2013-12-07 07:24:00,
2013-12-07 01:29:00,-6.5,-10.8,30.66,SSE,147,0.0,0.0,81,0.00,,,0.00,VWS V12.07,2013-12-07 07:29:00,
2013-12-07 01:34:00,-6.7,-11.2,30.66,SSE,147,0.0,0.0,80,0.00,,,0.00,VWS V12.07,2013-12-07 07:34:00,
2013-12-07 01:39:00,-7.0,-11.5,30.66,SSE,147,0.0,0.0,80,0.00,,,0.00,VWS V12.07,2013-12-07 07:39:00,
2013-12-07 01:44:00,-7.2,-11.7,30.66,SSE,147,0.0,0.0,80,0.00,,,0.00,VWS V12.07,2013-12-07 07:44:00,
2013-12-07 01:49:00,-7.5,-12.0,30.67,SSE,147,0.0,0.0,80,0.00,,,0.00,VWS V12.07,2013-12-07 07:49:00,
2013-12-07 01:54:00,-7.6,-12.1,30.67,SSE,147,0.0,0.0,80,0.00,,,0.00,VWS V12.07,2013-12-07 07:54:00,
2013-12-07 01:59:00,-7.9,-12.4,30.67,SE,146,0.0,0.0,80,0.00,,,0.00,VWS V12.07,2013-12-07 07:59:00,
2013-12-07 02:04:00,-8.1,-12.6,30.68,SSE,147,0.0,0.0,80,0.00,,,0.00,VWS V12.07,2013-12-07 08:04:00,
2013-12-07 02:14:00,-8.5,-13.0,30.68,SSE,147,0.0,0.0,80,0.00,,,0.00,VWS V12.07,2013-12-07 08:14:00,
2013-12-07 02:19:00,-8.7,-13.2,30.68,SE,146,0.0,0.0,80,0.00,,,0.00,VWS V12.07,2013-12-07 08:19:00,
2013-12-07 02:24:00,-8.8,-13.3,30.68,SSE,147,0.0,0.0,80,0.00,,,0.00,VWS V12.07,2013-12-07 08:24:00,
2013-12-07 02:29:00,-8.9,-13.4,30.68,SSE,147,0.0,0.0,80,0.00,,,0.00,VWS V12.07,2013-12-07 08:29:00,
2013-12-07 02:34:00,-9.1,-13.6,30.68,SE,146,0.0,0.0,80,0.00,,,0.00,VWS V12.07,2013-12-07 08:34:00,
2013-12-07 02:39:00,-9.3,-13.8,30.68,SE,146,0.0,0.0,80,0.00,,,0.00,VWS V12.07,2013-12-07 08:39:00,
2013-12-07 02:44:00,-9.5,-14.0,30.68,SE,146,0.0,0.0,80,0.00,,,0.00,VWS V12.07,2013-12-07 08:44:00,
2013-12-07 02:49:00,-9.7,-14.2,30.68,SSE,147,0.0,0.0,80,0.00,,,0.00,VWS V12.07,2013-12-07 08:49:00,
2013-12-07 02:54:00,-9.7,-14.2,30.68,SE,146,0.0,0.0,80,0.00,,,0.00,VWS V12.07,2013-12-07 08:54:00,
2013-12-07 02:59:00,-9.8,-14.3,30.68,SSE,147,0.0,0.0,80,0.00,,,0.00,VWS V12.07,2013-12-07 08:59:00,
2013-12-07 03:04:00,-9.9,-14.4,30.68,SSE,147,0.0,0.0,80,0.00,,,0.00,VWS V12.07,2013-12-07 09:04:00,
2013-12-07 03:09:00,-10.0,-14.5,30.68,SSE,147,0.0,0.0,80,0.00,,,0.00,VWS V12.07,2013-12-07 09:09:00,
2013-12-07 03:14:00,-10.1,-14.6,30.68,SE,146,0.0,0.0,80,0.00,,,0.00,VWS V12.07,2013-12-07 09:14:00,
2013-12-07 03:19:00,-10.3,-14.8,30.68,SSE,147,0.0,0.0,80,0.00,,,0.00,VWS V12.07,2013-12-07 09:19:00,
2013-12-07 03:24:00,-10.4,-14.9,30.68,SSE,147,0.0,0.0,80,0.00,,,0.00,VWS V12.07,2013-12-07 09:24:00,
2013-12-07 03:29:00,-10.6,-15.1,30.68,SSE,147,0.0,0.0,80,0.00,,,0.00,VWS V12.07,2013-12-07 09:29:00,
2013-12-07 03:34:00,-10.7,-15.1,30.68,SSE,147,0.0,0.0,80,0.00,,,0.00,VWS V12.07,2013-12-07 09:34:00,
2013-12-07 03:39:00,-10.8,-15.2,30.68,SSE,147,0.0,0.0,80,0.00,,,0.00,VWS V12.07,2013-12-07 09:39:00,
2013-12-07 03:44:00,-10.8,-12.5,30.68,SSE,147,0.0,0.0,92,0.00,,,0.00,VWS V12.07,2013-12-07 09:44:00,
2013-12-07 03:49:00,-10.9,-15.3,30.68,SE,146,0.0,0.0,80,0.00,,,0.00,VWS V12.07,2013-12-07 09:49:00,
2013-12-07 03:54:00,-11.1,-15.5,30.68,SE,146,0.0,0.0,80,0.00,,,0.00,VWS V12.07,2013-12-07 09:54:00,
2013-12-07 03:59:00,-11.1,-15.5,30.68,SSE,147,0.0,0.0,80,0.00,,,0.00,VWS V12.07,2013-12-07 09:59:00,
2013-12-07 04:04:00,-11.2,-15.6,30.69,SSE,147,0.0,0.0,80,0.00,,,0.00,VWS V12.07,2013-12-07 10:04:00,
2013-12-07 04:14:00,-11.5,-15.9,30.69,SE,146,0.0,0.0,80,0.00,,,0.00,VWS V12.07,2013-12-07 10:14:00,
2013-12-07 04:19:00,-11.6,-16.0,30.70,SSE,147,0.0,0.0,80,0.00,,,0.00,VWS V12.07,2013-12-07 10:19:00,
2013-12-07 04:24:00,-11.8,-16.5,30.70,SSE,147,0.0,0.0,79,0.00,,,0.00,VWS V12.07,2013-12-07 10:24:00,
2013-12-07 04:29:00,-11.8,-16.2,30.70,SE,146,0.0,0.0,80,0.00,,,0.00,VWS V12.07,2013-12-07 10:29:00,
2013-12-07 04:34:00,-12.0,-16.4,30.70,SSE,147,0.0,0.0,80,0.00,,,0.00,VWS V12.07,2013-12-07 10:34:00,
2013-12-07 04:39:00,-12.1,-16.8,30.70,SSE,147,0.0,0.0,79,0.00,,,0.00,VWS V12.07,2013-12-07 10:39:00,
2013-12-07 04:44:00,-12.2,-16.6,30.70,SSE,147,0.0,0.0,80,0.00,,,0.00,VWS V12.07,2013-12-07 10:44:00,
2013-12-07 04:49:00,-12.2,-16.6,30.71,SE,146,0.0,0.0,80,0.00,,,0.00,VWS V12.07,2013-12-07 10:49:00,
2013-12-07 04:59:00,-12.4,-17.0,30.70,SSE,147,0.0,0.0,79,0.00,,,0.00,VWS V12.07,2013-12-07 10:59:00,
2013-12-07 05:04:00,-12.4,-16.8,30.71,SSE,147,0.0,0.0,80,0.00,,,0.00,VWS V12.07,2013-12-07 11:04:00,
2013-12-07 05:09:00,-12.5,-16.9,30.70,SSE,147,0.0,0.0,80,0.00,,,0.00,VWS V12.07,2013-12-07 11:09:00,
2013-12-07 05:14:00,-12.5,-17.1,30.71,SSE,147,0.0,0.0,79,0.00,,,0.00,VWS V12.07,2013-12-07 11:14:00,
2013-12-07 05:19:00,-12.6,-17.2,30.70,SSE,147,0.0,0.0,79,0.00,,,0.00,VWS V12.07,2013-12-07 11:19:00,
2013-12-07 05:24:00,-12.8,-17.4,30.70,SSE,147,0.0,0.0,79,0.00,,,0.00,VWS V12.07,2013-12-07 11:24:00,
2013-12-07 05:29:00,-12.9,-17.5,30.71,SSE,147,0.0,0.0,79,0.00,,,0.00,VWS V12.07,2013-12-07 11:29:00,
2013-12-07 05:34:00,-13.0,-17.6,30.71,SSE,147,0.0,0.0,79,0.00,,,0.00,VWS V12.07,2013-12-07 11:34:00,
2013-12-07 05:39:00,-13.3,-17.9,30.71,SSE,147,0.0,0.0,79,0.00,,,0.00,VWS V12.07,2013-12-07 11:39:00,
2013-12-07 05:44:00,-13.4,-18.0,30.71,SSE,147,0.0,0.0,79,0.00,,,0.00,VWS V12.07,2013-12-07 11:44:00,
2013-12-07 05:49:00,-13.4,-18.0,30.70,SE,146,0.0,0.0,79,0.00,,,0.00,VWS V12.07,2013-12-07 11:49:00,
2013-12-07 05:54:00,-13.6,-18.2,30.71,SSE,147,0.0,0.0,79,0.00,,,0.00,VWS V12.07,2013-12-07 11:54:00,
2013-12-07 05:59:00,-13.7,-18.3,30.71,SE,146,0.0,0.0,79,0.00,,,0.00,VWS V12.07,2013-12-07 11:59:00,
2013-12-07 06:04:00,-13.8,-18.4,30.71,SSE,147,0.0,0.0,79,0.00,,,0.00,VWS V12.07,2013-12-07 12:04:00,
2013-12-07 06:09:00,-13.9,-18.5,30.71,SSE,147,0.0,0.0,79,0.00,,,0.00,VWS V12.07,2013-12-07 12:09:00,
2013-12-07 06:14:00,-14.1,-18.7,30.71,SSE,147,0.0,0.0,79,0.00,,,0.00,VWS V12.07,2013-12-07 12:14:00,
2013-12-07 06:19:00,-14.2,-18.8,30.71,SSE,147,0.0,0.0,79,0.00,,,0.00,VWS V12.07,2013-12-07 12:19:00,
2013-12-07 06:24:00,-14.3,-18.9,30.71,SE,146,0.0,0.0,79,0.00,,,0.00,VWS V12.07,2013-12-07 12:24:00,
2013-12-07 06:34:00,-14.5,-19.1,30.71,SE,146,0.0,0.0,79,0.00,,,0.00,VWS V12.07,2013-12-07 12:34:00,
2013-12-07 06:39:00,-14.7,-19.5,30.72,SSE,147,0.0,0.0,78,0.00,,,0.00,VWS V12.07,2013-12-07 12:39:00,
2013-12-07 06:44:00,-14.7,-19.3,30.71,SSE,147,0.0,0.0,79,0.00,,,0.00,VWS V12.07,2013-12-07 12:44:00,
2013-12-07 06:54:00,-14.8,-19.4,30.72,SSE,147,0.0,0.0,79,0.00,,,0.00,VWS V12.07,2013-12-07 12:54:00,
2013-12-07 06:59:00,-14.8,-19.4,30.72,SE,146,0.0,0.0,79,0.00,,,0.00,VWS V12.07,2013-12-07 12:59:00,
2013-12-07 07:04:00,-14.9,-19.5,30.72,SSE,147,0.0,0.0,79,0.00,,,0.00,VWS V12.07,2013-12-07 13:04:00,
2013-12-07 07:09:00,-15.0,-19.6,30.71,SSE,147,0.0,0.0,79,0.00,,,0.00,VWS V12.07,2013-12-07 13:09:00,
2013-12-07 07:14:00,-15.1,-19.7,30.71,SSE,147,0.0,0.0,79,0.00,,,0.00,VWS V12.07,2013-12-07 13:14:00,
2013-12-07 07:19:00,-15.1,-19.9,30.72,SSE,147,0.0,0.0,78,0.00,,,0.00,VWS V12.07,2013-12-07 13:19:00,
2013-12-07 07:24:00,-15.2,-19.8,30.72,SSE,147,0.0,0.0,79,0.00,,,0.00,VWS V12.07,2013-12-07 13:24:00,
2013-12-07 07:29:00,-15.2,-20.0,30.72,SSE,147,0.0,0.0,78,0.00,,,0.00,VWS V12.07,2013-12-07 13:29:00,
2013-12-07 07:34:00,-15.3,-20.1,30.72,SSE,147,0.0,0.0,78,0.00,,,0.00,VWS V12.07,2013-12-07 13:34:00,
2013-12-07 07:39:00,-15.3,-20.1,30.73,SE,146,0.0,0.0,78,0.00,,,0.00,VWS V12.07,2013-12-07 13:39:00,
2013-12-07 07:44:00,-15.3,-19.9,30.73,SSE,147,0.0,0.0,79,0.00,,,0.00,VWS V12.07,2013-12-07 13:44:00,
2013-12-07 07:49:00,-15.3,-19.9,30.73,SSE,147,0.0,0.0,79,0.00,,,0.00,VWS V12.07,2013-12-07 13:49:00,
2013-12-07 07:59:00,-15.3,-19.9,30.73,SSE,147,0.0,0.0,79,0.00,,,0.00,VWS V12.07,2013-12-07 13:59:00,
2013-12-07 08:04:00,-15.2,-19.8,30.74,SSE,147,0.0,0.0,79,0.00,,,0.00,VWS V12.07,2013-12-07 14:04:00,
2013-12-07 08:09:00,-15.2,-19.8,30.74,SSE,147,0.0,0.0,79,0.00,,,0.00,VWS V12.07,2013-12-07 14:09:00,
2013-12-07 08:14:00,-15.0,-19.4,30.74,SE,146,0.0,0.0,80,0.00,,,0.00,VWS V12.07,2013-12-07 14:14:00,
2013-12-07 08:19:00,-14.7,-19.1,30.74,SSE,147,0.0,0.0,80,0.00,,,0.00,VWS V12.07,2013-12-07 14:19:00,
2013-12-07 08:24:00,-14.6,-19.2,30.74,SSE,147,0.0,0.0,79,0.00,,,0.00,VWS V12.07,2013-12-07 14:24:00,
2013-12-07 08:29:00,-14.5,-19.1,30.74,SE,146,0.0,0.0,79,0.00,,,0.00,VWS V12.07,2013-12-07 14:29:00,
2013-12-07 08:34:00,-14.3,-18.7,30.74,SSE,147,0.0,0.0,80,0.00,,,0.00,VWS V12.07,2013-12-07 14:34:00,
2013-12-07 08:39:00,-14.0,-18.4,30.74,SE,146,0.0,0.0,80,0.00,,,0.00,VWS V12.07,2013-12-07 14:39:00,
2013-12-07 08:44:00,-13.7,-18.1,30.74,SSE,147,0.0,0.0,80,0.00,,,0.00,VWS V12.07,2013-12-07 14:44:00,
2013-12-07 08:49:00,-13.5,-17.9,30.75,SE,146,0.0,0.0,80,0.00,,,0.00,VWS V12.07,2013-12-07 14:49:00,
2013-12-07 08:54:00,-13.2,-17.6,30.75,SSE,147,0.0,0.0,80,0.00,,,0.00,VWS V12.07,2013-12-07 14:54:00,
2013-12-07 08:59:00,-13.0,-17.4,30.75,SE,146,0.0,0.0,80,0.00,,,0.00,VWS V12.07,2013-12-07 14:59:00,
2013-12-07 09:04:00,-12.8,-17.2,30.75,SSE,147,0.0,0.0,80,0.00,,,0.00,VWS V12.07,2013-12-07 15:04:00,
2013-12-07 09:09:00,-12.6,-17.0,30.75,SE,146,0.0,0.0,80,0.00,,,0.00,VWS V12.07,2013-12-07 15:09:00,
2013-12-07 09:14:00,-12.5,-16.9,30.75,SE,146,0.0,0.0,80,0.00,,,0.00,VWS V12.07,2013-12-07 15:14:00,
2013-12-07 09:24:00,-12.0,-16.2,30.75,SE,146,0.0,0.0,81,0.00,,,0.00,VWS V12.07,2013-12-07 15:24:00,
2013-12-07 09:29:00,-11.6,-15.8,30.75,SSE,147,0.0,0.0,81,0.00,,,0.00,VWS V12.07,2013-12-07 15:29:00,
2013-12-07 09:34:00,-11.3,-15.5,30.76,SSE,147,0.0,0.0,81,0.00,,,0.00,VWS V12.07,2013-12-07 15:34:00,
2013-12-07 09:39:00,-11.0,-15.2,30.76,SSE,147,0.0,0.0,81,0.00,,,0.00,VWS V12.07,2013-12-07 15:39:00,
2013-12-07 09:49:00,-10.0,-14.0,30.76,SE,146,0.0,0.0,82,0.00,,,0.00,VWS V12.07,2013-12-07 15:49:00,
2013-12-07 09:54:00,-9.5,-13.5,30.77,SSE,147,0.0,0.0,82,0.00,,,0.00,VWS V12.07,2013-12-07 15:54:00,
2013-12-07 09:59:00,-9.0,-13.0,30.77,SSE,147,0.0,0.0,82,0.00,,,0.00,VWS V12.07,2013-12-07 15:59:00,
2013-12-07 10:04:00,-8.5,-12.5,30.77,SSE,147,0.0,0.0,82,0.00,,,0.00,VWS V12.07,2013-12-07 16:04:00,
2013-12-07 10:09:00,-8.0,-12.0,30.77,SSE,147,0.0,0.0,82,0.00,,,0.00,VWS V12.07,2013-12-07 16:09:00,
2013-12-07 10:14:00,-7.6,-11.6,30.77,SSE,147,0.0,0.0,82,0.00,,,0.00,VWS V12.07,2013-12-07 16:14:00,
2013-12-07 10:19:00,-7.2,-11.2,30.77,SSE,147,0.0,0.0,82,0.00,,,0.00,VWS V12.07,2013-12-07 16:19:00,
2013-12-07 10:24:00,-6.7,-10.7,30.77,SE,146,0.0,0.0,82,0.00,,,0.00,VWS V12.07,2013-12-07 16:24:00,
2013-12-07 10:29:00,-6.3,-10.4,30.77,SSE,147,0.0,0.0,82,0.00,,,0.00,VWS V12.07,2013-12-07 16:29:00,
2013-12-07 10:34:00,-6.0,-10.1,30.77,SSE,147,0.0,0.0,82,0.00,,,0.00,VWS V12.07,2013-12-07 16:34:00,
2013-12-07 10:39:00,-5.8,-9.9,30.77,SE,146,0.0,0.0,82,0.00,,,0.00,VWS V12.07,2013-12-07 16:39:00,
2013-12-07 10:49:00,-5.3,-9.4,30.77,SE,146,0.0,0.0,82,0.00,,,0.00,VWS V12.07,2013-12-07 16:49:00,
2013-12-07 10:59:00,-4.8,-8.9,30.77,SE,146,0.0,0.0,82,0.00,,,0.00,VWS V12.07,2013-12-07 16:59:00,
2013-12-07 11:04:00,-4.6,-8.7,30.77,SE,146,0.0,0.0,82,0.00,,,0.00,VWS V12.07,2013-12-07 17:04:00,
2013-12-07 11:09:00,-4.3,-8.4,30.76,SE,146,0.0,0.0,82,0.00,,,0.00,VWS V12.07,2013-12-07 17:09:00,
2013-12-07 11:14:00,-4.0,-8.1,30.76,SSE,147,0.0,0.0,82,0.00,,,0.00,VWS V12.07,2013-12-07 17:14:00,
2013-12-07 11:24:00,-3.2,-7.3,30.76,SSE,147,0.0,0.0,82,0.00,,,0.00,VWS V12.07,2013-12-07 17:24:00,
2013-12-07 11:29:00,-2.9,-7.0,30.75,SE,146,0.0,0.0,82,0.00,,,0.00,VWS V12.07,2013-12-07 17:29:00,
2013-12-07 11:34:00,-2.7,-6.8,30.75,SSE,147,0.0,0.0,82,0.00,,,0.00,VWS V12.07,2013-12-07 17:34:00,
2013-12-07 11:39:00,-2.4,-6.8,30.75,SSE,147,0.0,0.0,81,0.00,,,0.00,VWS V12.07,2013-12-07 17:39:00,
2013-12-07 11:44:00,-2.2,-6.6,30.75,SE,146,0.0,0.0,81,0.00,,,0.00,VWS V12.07,2013-12-07 17:44:00,
2013-12-07 11:49:00,-1.9,-6.3,30.75,SSE,147,0.0,0.0,81,0.00,,,0.00,VWS V12.07,2013-12-07 17:49:00,
2013-12-07 11:54:00,-1.7,-6.1,30.75,SSE,147,0.0,0.0,81,0.00,,,0.00,VWS V12.07,2013-12-07 17:54:00,
2013-12-07 11:59:00,-1.4,-5.8,30.75,SSE,147,0.0,0.0,81,0.00,,,0.00,VWS V12.07,2013-12-07 17:59:00,
2013-12-07 12:04:00,-1.1,-5.5,30.75,SE,146,0.0,0.0,81,0.00,,,0.00,VWS V12.07,2013-12-07 18:04:00,
2013-12-07 12:09:00,-0.8,-5.5,30.74,SSE,147,0.0,0.0,80,0.00,,,0.00,VWS V12.07,2013-12-07 18:09:00,
2013-12-07 12:14:00,-0.6,-5.3,30.74,SE,146,0.0,0.0,80,0.00,,,0.00,VWS V12.07,2013-12-07 18:14:00,
2013-12-07 12:24:00,-0.3,-5.0,30.74,SSE,147,0.0,0.0,80,0.00,,,0.00,VWS V12.07,2013-12-07 18:24:00,
2013-12-07 12:29:00,-0.1,-4.8,30.74,SSE,147,0.0,0.0,80,0.00,,,0.00,VWS V12.07,2013-12-07 18:29:00,
2013-12-07 12:39:00,0.1,-4.8,30.74,SSE,147,0.0,0.0,79,0.00,,,0.00,VWS V12.07,2013-12-07 18:39:00,
2013-12-07 12:44:00,0.2,-4.5,30.73,SE,146,0.0,0.0,80,0.00,,,0.00,VWS V12.07,2013-12-07 18:44:00,
2013-12-07 12:49:00,0.3,-4.4,30.73,SE,146,0.0,0.0,80,0.00,,,0.00,VWS V12.07,2013-12-07 18:49:00,
2013-12-07 12:54:00,0.4,-4.3,30.73,SSE,147,0.0,0.0,80,0.00,,,0.00,VWS V12.07,2013-12-07 18:54:00,
2013-12-07 12:59:00,0.6,-4.4,30.73,SE,146,0.0,0.0,79,0.00,,,0.00,VWS V12.07,2013-12-07 18:59:00,
2013-12-07 13:04:00,0.7,-4.0,30.73,SSE,147,0.0,0.0,80,0.00,,,0.00,VWS V12.07,2013-12-07 19:04:00,
2013-12-07 13:09:00,0.9,-3.8,30.73,SSE,147,0.0,0.0,80,0.00,,,0.00,VWS V12.07,2013-12-07 19:09:00,
2013-12-07 13:14:00,1.0,-4.0,30.73,SE,146,0.0,0.0,79,0.00,,,0.00,VWS V12.07,2013-12-07 19:14:00,
2013-12-07 13:19:00,1.0,-4.0,30.73,SE,146,0.0,0.0,79,0.00,,,0.00,VWS V12.07,2013-12-07 19:19:00,
2013-12-07 13:24:00,1.1,-3.9,30.73,SSE,147,0.0,0.0,79,0.00,,,0.00,VWS V12.07,2013-12-07 19:24:00,
2013-12-07 13:34:00,1.4,-3.6,30.73,SE,146,0.0,0.0,79,0.00,,,0.00,VWS V12.07,2013-12-07 19:34:00,
2013-12-07 13:39:00,1.5,-3.8,30.73,SSE,147,0.0,0.0,78,0.00,,,0.00,VWS V12.07,2013-12-07 19:39:00,
2013-12-07 13:44:00,1.5,-4.0,30.72,SSE,147,0.0,0.0,77,0.00,,,0.00,VWS V12.07,2013-12-07 19:44:00,
2013-12-07 13:49:00,1.5,-3.8,30.72,SSE,147,0.0,0.0,78,0.00,,,0.00,VWS V12.07,2013-12-07 19:49:00,
2013-12-07 13:54:00,1.5,-3.8,30.72,SSE,147,0.0,0.0,78,0.00,,,0.00,VWS V12.07,2013-12-07 19:54:00,
2013-12-07 13:59:00,1.5,-4.0,30.72,SSE,147,0.0,0.0,77,0.00,,,0.00,VWS V12.07,2013-12-07 19:59:00,
2013-12-07 14:04:00,1.5,-4.0,30.72,SSE,147,0.0,0.0,77,0.00,,,0.00,VWS V12.07,2013-12-07 20:04:00,
2013-12-07 14:09:00,1.4,-4.4,30.72,SE,146,0.0,0.0,76,0.00,,,0.00,VWS V12.07,2013-12-07 20:09:00,
2013-12-07 14:14:00,1.3,-4.2,30.72,SSE,147,0.0,0.0,77,0.00,,,0.00,VWS V12.07,2013-12-07 20:14:00,
2013-12-07 14:19:00,1.4,-4.1,30.72,SSE,147,0.0,0.0,77,0.00,,,0.00,VWS V12.07,2013-12-07 20:19:00,
2013-12-07 14:24:00,1.4,-4.4,30.72,SE,146,0.0,0.0,76,0.00,,,0.00,VWS V12.07,2013-12-07 20:24:00,
2013-12-07 14:29:00,1.4,-4.4,30.72,SSE,147,0.0,0.0,76,0.00,,,0.00,VWS V12.07,2013-12-07 20:29:00,
2013-12-07 14:34:00,1.4,-4.1,30.72,SSE,147,0.0,0.0,77,0.00,,,0.00,VWS V12.07,2013-12-07 20:34:00,
2013-12-07 14:44:00,1.2,-4.3,30.72,SSE,147,0.0,0.0,77,0.00,,,0.00,VWS V12.07,2013-12-07 20:44:00,
2013-12-07 14:49:00,1.1,-4.7,30.72,SE,146,0.0,0.0,76,0.00,,,0.00,VWS V12.07,2013-12-07 20:49:00,
2013-12-07 14:54:00,1.0,-4.8,30.72,SSE,147,0.0,0.0,76,0.00,,,0.00,VWS V12.07,2013-12-07 20:54:00,
2013-12-07 14:59:00,0.9,-4.6,30.72,SE,146,0.0,0.0,77,0.00,,,0.00,VWS V12.07,2013-12-07 20:59:00,
2013-12-07 15:09:00,0.8,-4.7,30.72,SE,146,0.0,0.0,77,0.00,,,0.00,VWS V12.07,2013-12-07 21:09:00,
2013-12-07 15:14:00,0.6,-4.9,30.72,SSE,147,0.0,0.0,77,0.00,,,0.00,VWS V12.07,2013-12-07 21:14:00,
2013-12-07 15:19:00,0.5,-5.0,30.72,SSE,147,0.0,0.0,77,0.00,,,0.00,VWS V12.07,2013-12-07 21:19:00,
2013-12-07 15:24:00,0.5,-4.7,30.72,SSE,147,0.0,0.0,78,0.00,,,0.00,VWS V12.07,2013-12-07 21:24:00,
2013-12-07 15:34:00,0.5,-4.7,30.72,SSE,147,0.0,0.0,78,0.00,,,0.00,VWS V12.07,2013-12-07 21:34:00,
2013-12-07 15:39:00,0.4,-5.1,30.72,SE,146,0.0,0.0,77,0.00,,,0.00,VWS V12.07,2013-12-07 21:39:00,
2013-12-07 15:44:00,0.1,-5.7,30.72,SE,146,0.0,0.0,76,0.00,,,0.00,VWS V12.07,2013-12-07 21:44:00,
2013-12-07 15:54:00,-0.4,-5.9,30.72,SSE,147,0.0,0.0,77,0.00,,,0.00,VWS V12.07,2013-12-07 21:54:00,
2013-12-07 15:59:00,-0.6,-5.8,30.72,SSE,147,0.0,0.0,78,0.00,,,0.00,VWS V12.07,2013-12-07 21:59:00,
2013-12-07 16:04:00,-0.7,-6.2,30.72,SSE,147,0.0,0.0,77,0.00,,,0.00,VWS V12.07,2013-12-07 22:04:00,
2013-12-07 16:09:00,-0.8,-6.3,30.72,SSE,147,0.0,0.0,77,0.00,,,0.00,VWS V12.07,2013-12-07 22:09:00,
2013-12-07 16:14:00,-0.9,-6.4,30.72,SSE,147,0.0,0.0,77,0.00,,,0.00,VWS V12.07,2013-12-07 22:14:00,
2013-12-07 16:19:00,-1.2,-6.7,30.72,SSE,147,0.0,0.0,77,0.00,,,0.00,VWS V12.07,2013-12-07 22:19:00,
2013-12-07 16:24:00,-1.6,-7.0,30.72,SSE,147,0.0,0.0,77,0.00,,,0.00,VWS V12.07,2013-12-07 22:24:00,
2013-12-07 16:29:00,-2.0,-7.4,30.72,SE,146,0.0,0.0,77,0.00,,,0.00,VWS V12.07,2013-12-07 22:29:00,
2013-12-07 16:34:00,-2.4,-7.6,30.73,SSE,147,0.0,0.0,78,0.00,,,0.00,VWS V12.07,2013-12-07 22:34:00,
2013-12-07 16:39:00,-2.7,-7.8,30.73,SSE,147,0.0,0.0,78,0.00,,,0.00,VWS V12.07,2013-12-07 22:39:00,
2013-12-07 16:49:00,-3.1,-8.0,30.73,SSE,147,0.0,0.0,79,0.00,,,0.00,VWS V12.07,2013-12-07 22:49:00,
2013-12-07 16:54:00,-3.1,-8.0,30.73,SE,146,0.0,0.0,79,0.00,,,0.00,VWS V12.07,2013-12-07 22:54:00,
2013-12-07 16:59:00,-3.2,-8.1,30.73,SSE,147,0.0,0.0,79,0.00,,,0.00,VWS V12.07,2013-12-07 22:59:00,
2013-12-07 17:09:00,-3.4,-8.3,30.73,SSE,147,0.0,0.0,79,0.00,,,0.00,VWS V12.07,2013-12-07 23:09:00,
2013-12-07 17:14:00,-3.5,-8.4,30.73,SSE,147,0.0,0.0,79,0.00,,,0.00,VWS V12.07,2013-12-07 23:14:00,
2013-12-07 17:19:00,-3.7,-8.6,30.73,SE,146,0.0,0.0,79,0.00,,,0.00,VWS V12.07,2013-12-07 23:19:00,
2013-12-07 17:29:00,-4.0,-8.9,30.73,SSE,147,0.0,0.0,79,0.00,,,0.00,VWS V12.07,2013-12-07 23:29:00,
2013-12-07 17:34:00,-4.2,-9.1,30.73,SSE,147,0.0,0.0,79,0.00,,,0.00,VWS V12.07,2013-12-07 23:34:00,
2013-12-07 17:39:00,-4.3,-9.1,30.73,SE,146,0.0,0.0,79,0.00,,,0.00,VWS V12.07,2013-12-07 23:39:00,
2013-12-07 17:49:00,-4.5,-9.3,30.73,SE,146,0.0,0.0,79,0.00,,,0.00,VWS V12.07,2013-12-07 23:49:00,
2013-12-07 17:54:00,-4.7,-9.5,30.73,SE,146,0.0,0.0,79,0.00,,,0.00,VWS V12.07,2013-12-07 23:54:00,
2013-12-07 17:59:00,-4.9,-9.7,30.74,SSE,147,0.0,0.0,79,0.00,,,0.00,VWS V12.07,2013-12-07 23:59:00,
2013-12-07 18:04:00,-5.1,-9.9,30.74,SSE,147,0.0,0.0,79,0.00,,,0.00,VWS V12.07,2013-12-08 00:04:00,
2013-12-07 18:09:00,-5.3,-10.1,30.74,SSE,147,0.0,0.0,79,0.00,,,0.00,VWS V12.07,2013-12-08 00:09:00,
2013-12-07 18:19:00,-5.6,-10.2,30.74,SSE,147,0.0,0.0,80,0.00,,,0.00,VWS V12.07,2013-12-08 00:19:00,
2013-12-07 18:24:00,-5.8,-10.4,30.74,SE,146,0.0,0.0,80,0.00,,,0.00,VWS V12.07,2013-12-08 00:24:00,
2013-12-07 18:34:00,-6.0,-10.6,30.73,SSE,147,0.0,0.0,80,0.00,,,0.00,VWS V12.07,2013-12-08 00:34:00,
2013-12-07 18:39:00,-6.1,-10.6,30.74,SSE,147,0.0,0.0,80,0.00,,,0.00,VWS V12.07,2013-12-08 00:39:00,
2013-12-07 18:44:00,-6.1,-10.6,30.73,SSE,147,0.0,0.0,80,0.00,,,0.00,VWS V12.07,2013-12-08 00:44:00,
2013-12-07 18:49:00,-6.3,-10.9,30.73,SE,146,0.0,0.0,80,0.00,,,0.00,VWS V12.07,2013-12-08 00:49:00,
2013-12-07 18:54:00,-6.4,-10.9,30.73,SE,146,0.0,0.0,80,0.00,,,0.00,VWS V12.07,2013-12-08 00:54:00,
2013-12-07 18:59:00,-6.5,-11.0,30.73,SSE,147,0.0,0.0,80,0.00,,,0.00,VWS V12.07,2013-12-08 00:59:00,
2013-12-07 19:09:00,-6.9,-11.4,30.73,SE,146,0.0,0.0,80,0.00,,,0.00,VWS V12.07,2013-12-08 01:09:00,
2013-12-07 19:14:00,-7.0,-11.5,30.73,SSE,147,0.0,0.0,80,0.00,,,0.00,VWS V12.07,2013-12-08 01:14:00,
2013-12-07 19:19:00,-7.2,-11.7,30.73,SSE,147,0.0,0.0,80,0.00,,,0.00,VWS V12.07,2013-12-08 01:19:00,
2013-12-07 19:24:00,-7.3,-11.8,30.74,SSE,147,0.0,0.0,80,0.00,,,0.00,VWS V12.07,2013-12-08 01:24:00,
2013-12-07 19:29:00,-7.4,-11.9,30.74,SSE,147,0.0,0.0,80,0.00,,,0.00,VWS V12.07,2013-12-08 01:29:00,
2013-12-07 19:34:00,-7.6,-12.1,30.73,SSE,147,0.0,0.0,80,0.00,,,0.00,VWS V12.07,2013-12-08 01:34:00,
2013-12-07 19:39:00,-7.7,-12.2,30.73,SE,146,0.0,0.0,80,0.00,,,0.00,VWS V12.07,2013-12-08 01:39:00,
2013-12-07 19:49:00,-8.0,-12.5,30.73,SSE,147,0.0,0.0,80,0.00,,,0.00,VWS V12.07,2013-12-08 01:49:00,
2013-12-07 19:54:00,-8.2,-12.7,30.73,SSE,147,0.0,0.0,80,0.00,,,0.00,VWS V12.07,2013-12-08 01:54:00,
2013-12-07 20:04:00,-8.4,-12.9,30.73,SSE,147,0.0,0.0,80,0.00,,,0.00,VWS V12.07,2013-12-08 02:04:00,
2013-12-07 20:09:00,-8.5,-13.0,30.73,SSE,147,0.0,0.0,80,0.00,,,0.00,VWS V12.07,2013-12-08 02:09:00,
2013-12-07 20:14:00,-8.5,-13.0,30.72,SSE,147,0.0,0.0,80,0.00,,,0.00,VWS V12.07,2013-12-08 02:14:00,
2013-12-07 20:19:00,-8.6,-13.1,30.72,SE,146,0.0,0.0,80,0.00,,,0.00,VWS V12.07,2013-12-08 02:19:00,
2013-12-07 20:29:00,-8.6,-13.1,30.72,SE,146,0.0,0.0,80,0.00,,,0.00,VWS V12.07,2013-12-08 02:29:00,
2013-12-07 20:34:00,-8.7,-13.2,30.72,SSE,147,0.0,0.0,80,0.00,,,0.00,VWS V12.07,2013-12-08 02:34:00,
2013-12-07 20:44:00,-8.9,-13.4,30.72,SE,146,0.0,0.0,80,0.00,,,0.00,VWS V12.07,2013-12-08 02:44:00,
2013-12-07 20:49:00,-9.0,-13.5,30.72,SSE,147,0.0,0.0,80,0.00,,,0.00,VWS V12.07,2013-12-08 02:49:00,
2013-12-07 20:54:00,-9.1,-13.6,30.71,SSE,147,0.0,0.0,80,0.00,,,0.00,VWS V12.07,2013-12-08 02:54:00,
2013-12-07 20:59:00,-9.1,-13.6,30.71,SE,146,0.0,0.0,80,0.00,,,0.00,VWS V12.07,2013-12-08 02:59:00,
2013-12-07 21:04:00,-9.2,-13.7,30.71,SE,146,0.0,0.0,80,0.00,,,0.00,VWS V12.07,2013-12-08 03:04:00,
2013-12-07 21:09:00,-9.3,-13.8,30.71,SSE,147,0.0,0.0,80,0.00,,,0.00,VWS V12.07,2013-12-08 03:09:00,
2013-12-07 21:14:00,-9.5,-14.0,30.71,SE,146,0.0,0.0,80,0.00,,,0.00,VWS V12.07,2013-12-08 03:14:00,
2013-12-07 21:19:00,-9.7,-14.4,30.71,SE,146,0.0,0.0,79,0.00,,,0.00,VWS V12.07,2013-12-08 03:19:00,
2013-12-07 21:24:00,-9.8,-14.3,30.71,SSE,147,0.0,0.0,80,0.00,,,0.00,VWS V12.07,2013-12-08 03:24:00,
2013-12-07 21:29:00,-9.9,-14.4,30.71,SSE,147,0.0,0.0,80,0.00,,,0.00,VWS V12.07,2013-12-08 03:29:00,
2013-12-07 21:34:00,-10.1,-14.8,30.71,SE,146,0.0,0.0,79,0.00,,,0.00,VWS V12.07,2013-12-08 03:34:00,
2013-12-07 21:44:00,-10.3,-14.8,30.71,SE,146,0.0,0.0,80,0.00,,,0.00,VWS V12.07,2013-12-08 03:44:00,
2013-12-07 21:49:00,-10.3,-14.8,30.71,SSE,147,0.0,0.0,80,0.00,,,0.00,VWS V12.07,2013-12-08 03:49:00,
2013-12-07 21:54:00,-10.3,-14.8,30.71,SSE,147,0.0,0.0,80,0.00,,,0.00,VWS V12.07,2013-12-08 03:54:00,
2013-12-07 21:59:00,-10.4,-14.9,30.71,SSE,147,0.0,0.0,80,0.00,,,0.00,VWS V12.07,2013-12-08 03:59:00,
2013-12-07 22:04:00,-10.4,-14.9,30.71,SSE,147,0.0,0.0,80,0.00,,,0.00,VWS V12.07,2013-12-08 04:04:00,
2013-12-07 22:09:00,-10.6,-15.1,30.71,SSE,147,0.0,0.0,80,0.00,,,0.00,VWS V12.07,2013-12-08 04:09:00,
2013-12-07 22:14:00,-10.5,-14.9,30.71,SE,146,0.0,0.0,80,0.00,,,0.00,VWS V12.07,2013-12-08 04:14:00,
2013-12-07 22:24:00,-10.5,-14.9,30.71,SSE,147,0.0,0.0,80,0.00,,,0.00,VWS V12.07,2013-12-08 04:24:00,
2013-12-07 22:29:00,-10.7,-15.1,30.71,SSE,147,0.0,0.0,80,0.00,,,0.00,VWS V12.07,2013-12-08 04:29:00,
2013-12-07 22:34:00,-10.8,-15.2,30.72,SE,146,0.0,0.0,80,0.00,,,0.00,VWS V12.07,2013-12-08 04:34:00,
2013-12-07 22:39:00,-10.9,-15.3,30.71,SSE,147,0.0,0.0,80,0.00,,,0.00,VWS V12.07,2013-12-08 04:39:00,
2013-12-07 22:44:00,-11.0,-15.7,30.71,SSE,147,0.0,0.0,79,0.00,,,0.00,VWS V12.07,2013-12-08 04:44:00,
2013-12-07 22:49:00,-11.1,-15.5,30.72,SSE,147,0.0,0.0,80,0.00,,,0.00,VWS V12.07,2013-12-08 04:49:00,
2013-12-07 22:54:00,-11.1,-15.5,30.72,SSE,147,0.0,0.0,80,0.00,,,0.00,VWS V12.07,2013-12-08 04:54:00,
2013-12-07 22:59:00,-11.2,-15.6,30.72,SSE,147,0.0,0.0,80,0.00,,,0.00,VWS V12.07,2013-12-08 04:59:00,
2013-12-07 23:04:00,-11.1,-15.5,30.72,SSE,147,0.0,0.0,80,0.00,,,0.00,VWS V12.07,2013-12-08 05:04:00,
2013-12-07 23:09:00,-11.1,-15.5,30.72,SE,146,0.0,0.0,80,0.00,,,0.00,VWS V12.07,2013-12-08 05:09:00,
2013-12-07 23:14:00,-11.2,-15.6,30.71,SSE,147,0.0,0.0,80,0.00,,,0.00,VWS V12.07,2013-12-08 05:14:00,
2013-12-07 23:19:00,-11.3,-16.0,30.71,SSE,147,0.0,0.0,79,0.00,,,0.00,VWS V12.07,2013-12-08 05:19:00,
2013-12-07 23:24:00,-11.4,-15.8,30.72,SSE,147,0.0,0.0,80,0.00,,,0.00,VWS V12.07,2013-12-08 05:24:00,
2013-12-07 23:29:00,-11.3,-15.7,30.71,SE,146,0.0,0.0,80,0.00,,,0.00,VWS V12.07,2013-12-08 05:29:00,
2013-12-07 23:34:00,-11.3,-15.7,30.71,SE,146,0.0,0.0,80,0.00,,,0.00,VWS V12.07,2013-12-08 05:34:00,
2013-12-07 23:39:00,-11.4,-15.8,30.71,SSE,147,0.0,0.0,80,0.00,,,0.00,VWS V12.07,2013-12-08 05:39:00,
2013-12-07 23:44:00,-11.4,-15.8,30.71,SSE,147,0.0,0.0,80,0.00,,,0.00,VWS V12.07,2013-12-08 05:44:00,
2013-12-07 23:49:00,-11.3,-15.7,30.71,SSE,147,0.0,0.0,80,0.00,,,0.00,VWS V12.07,2013-12-08 05:49:00,
2013-12-07 23:54:00,-11.4,-15.8,30.71,SE,146,0.0,0.0,80,0.00,,,0.00,VWS V12.07,2013-12-08 05:54:00,
2013-12-07 23:59:00,-11.3,-15.7,30.70,SSE,147,0.0,0.0,80,0.00,,,0.00,VWS V12.07,2013-12-08 05:59:00,